Location: Carri�res
(48.9069°N, 2.1792°E)
Time: 07:41:30
(UTC+00:00)

Cosmos 2082 Rocket - Visible Passes

Search period start: 10 May 2021 00:00
Search period end: 20 May 2021 00:00
Orbit: 835 x 852 km, 71.0° (Epoch: 09 May)

Date Brightness Start Highest point End Pass type
(mag) Time Alt. Az. Time Alt. Az. Time Alt. Az.
10 May 3.7 20:08:12 10° N 20:12:45 24° NE 20:17:17 10° E visible
10 May 2.2 21:51:50 10° NNW 21:57:28 77° WSW 21:59:58 34° SSE visible
10 May 4.3 23:38:14 10° WNW 23:40:34 13° W 23:41:48 12° WSW visible
11 May 3.7 19:53:41 10° N 19:58:09 24° NE 20:02:38 10° E visible
11 May 2.2 21:37:16 10° NNW 21:42:55 80° WSW 21:45:50 30° SSE visible
11 May 4.3 23:23:29 10° WNW 23:26:03 13° W 23:27:41 12° WSW visible
12 May 2.2 21:22:42 10° NNW 21:28:22 82° WSW 21:31:44 25° SSE visible
12 May 4.3 23:08:46 10° WNW 23:11:31 14° W 23:13:35 12° WSW visible
13 May 2.2 21:08:09 10° NNW 21:13:48 85° WSW 21:17:39 21° SSE visible
13 May 4.3 22:54:03 10° WNW 22:57:01 15° W 22:59:31 11° SW visible
14 May 2.2 20:53:36 10° NNW 20:59:15 88° WSW 21:03:37 17° SSE visible
14 May 4.3 22:39:22 10° WNW 22:42:30 15° W 22:45:29 10° SW visible
15 May 2.2 20:39:02 10° NNW 20:44:42 89° ENE 20:49:37 14° SSE visible
15 May 4.3 22:24:42 10° WNW 22:27:59 16° W 22:31:15 10° SW visible
16 May 2.2 20:24:29 10° NNW 20:30:09 86° ENE 20:35:40 11° SSE visible
16 May 4.3 22:10:02 10° WNW 22:13:28 17° W 22:16:53 10° SW visible
17 May 2.2 20:09:56 10° NNW 20:15:36 83° ENE 20:21:14 10° SSE visible
17 May 4.3 21:55:23 10° WNW 21:58:56 17° W 22:02:30 10° SW visible
18 May 4.3 21:40:44 10° WNW 21:44:25 18° W 21:48:07 10° SW visible
19 May 4.3 21:26:06 10° WNW 21:29:55 19° W 21:33:43 10° SW visible
